Stations météo

réclame
Mon MeteoGroup
Soderstjerna, Suède (2667): Température de l'air & dewpoint: 16.10.2017 17:00:00 - 22.10.2017 17:00:00 (CEST)Soderstjerna, Suède (2667): Vitesse du vent & gusts: 16.10.2017 17:00:00 - 22.10.2017 17:00:00 (CEST)Soderstjerna, Suède (2667): Direction du vent: 16.10.2017 17:00:00 - 22.10.2017 17:00:00 (CEST)Soderstjerna, Suède (2667): reduced air pressure: 16.10.2017 17:00:00 - 22.10.2017 17:00:00 (CEST)Soderstjerna, Suède (2667): visibility: 16.10.2017 17:00:00 - 22.10.2017 17:00:00 (CEST)Soderstjerna, Suède (2667): Quantités de précipitations: 16.10.2017 17:00:00 - 22.10.2017 17:00:00 (CEST)
Date & Time tt [°C] td [°C] ff [km/h] ff [knt] fx [km/h] fx [knt] dd ppp [hPa] vv [km] rr [mm]
22.10.2017 17:00:00 - - - - - - - - - -
22.10.2017 16:00:00 10,6 10,4 18 10 25 14 ESE 1009,8 7 0,8
22.10.2017 15:00:00 11,2 11,0 18 10 25 14 SSE 1010,1 9 0,7
22.10.2017 14:00:00 11,6 11,4 18 10 25 14 SE 1010,4 7 0,1
22.10.2017 13:00:00 11,8 11,6 18 10 25 14 SE 1010,7 10 0,0
22.10.2017 12:00:00 11,8 11,6 18 10 25 14 SE 1011,3 8 0,0
22.10.2017 11:00:00 11,7 11,7 18 10 25 14 ESE 1011,5 7 0,0
22.10.2017 10:00:00 11,5 11,5 18 10 29 16 ESE 1011,7 6 0,0
22.10.2017 09:00:00 11,2 11,2 22 12 32 18 SE 1012,1 6 0,3
22.10.2017 08:00:00 11,1 11,1 25 14 32 18 ESE 1012,4 9 0,0
22.10.2017 07:00:00 11,1 11,1 22 12 29 16 SE 1012,7 8 0,0
22.10.2017 06:00:00 11,2 11,2 22 12 32 18 SE 1013,2 7 0,0
22.10.2017 05:00:00 10,8 10,8 25 14 40 21 ESE 1013,6 6 0,0
22.10.2017 04:00:00 10,3 10,3 29 16 43 23 E 1013,7 9 0,1
22.10.2017 03:00:00 10,2 10,2 32 18 43 23 E 1014,3 12 0,4
22.10.2017 02:00:00 10,4 10,1 32 18 40 21 E 1014,9 9 0,2
22.10.2017 01:00:00 10,4 9,9 32 18 40 21 E 1015,6 25 0,0
22.10.2017 00:00:00 10,3 10,0 32 18 47 25 E 1015,8 21 0,0
21.10.2017 23:00:00 10,3 9,8 29 16 43 23 E 1016,4 21 0,0
21.10.2017 22:00:00 10,5 10,0 32 18 43 23 E 1016,5 35 0,0
21.10.2017 21:00:00 10,5 10,2 32 18 43 23 E 1016,2 35 0,0
21.10.2017 20:00:00 10,5 10,3 22 12 43 23 E 1016,4 23 0,0
21.10.2017 19:00:00 10,4 10,2 22 12 40 21 E 1016,4 7 0,0
21.10.2017 18:00:00 10,2 10,2 25 14 40 21 ENE 1015,7 3,4 0,0
21.10.2017 17:00:00 10,1 10,1 29 16 36 19 ENE 1015,6 3,1 0,2
21.10.2017 16:00:00 10,1 10,1 29 16 43 23 ENE 1015,8 4,2 0,0
21.10.2017 15:00:00 10,4 10,2 29 16 40 21 ENE 1015,5 10 0,0
21.10.2017 14:00:00 10,5 10,5 29 16 43 23 ENE 1015,3 9 0,0
21.10.2017 13:00:00 11,1 10,9 29 16 50 27 ENE 1015,1 15 0,0
21.10.2017 12:00:00 11,2 11,2 25 14 43 23 ENE 1015,0 6 0,0
21.10.2017 11:00:00 11,3 11,3 25 14 40 21 ENE 1014,8 8 0,0
21.10.2017 10:00:00 11,4 11,4 22 12 32 18 E 1014,6 2,4 0,0
21.10.2017 09:00:00 11,6 11,6 18 10 32 18 ENE 1014,1 4,4 0,0
21.10.2017 08:00:00 11,6 11,6 22 12 29 16 ENE 1013,8 2,7 0,0
21.10.2017 07:00:00 11,5 11,5 18 10 32 18 ENE 1013,5 3,5 0,0
21.10.2017 06:00:00 11,3 11,3 22 12 32 18 ENE 1013,4 3,6 0,0
21.10.2017 05:00:00 11,3 11,3 22 12 32 18 ENE 1013,5 3,6 0,0
21.10.2017 04:00:00 11,4 11,4 22 12 29 16 ENE 1013,9 4,9 0,0
21.10.2017 03:00:00 11,5 11,5 22 12 29 16 ENE 1014,3 4,6 0,0
21.10.2017 02:00:00 11,5 11,5 18 10 36 19 ENE 1014,7 3,0 0,0
21.10.2017 01:00:00 11,4 11,4 22 12 32 18 ENE 1014,9 2,1 0,0
21.10.2017 00:00:00 11,4 11,4 22 12 29 16 ENE 1015,0 2,9 0,0
20.10.2017 23:00:00 11,2 11,2 22 12 32 18 ENE 1015,3 2,3 0,0
20.10.2017 22:00:00 11,2 11,2 22 12 32 18 ENE 1015,3 1,3 0,0
20.10.2017 21:00:00 11,2 11,2 18 10 29 16 E 1015,5 1,4 0,0
20.10.2017 20:00:00 11,2 11,2 22 12 32 18 E 1015,8 2,7 0,0
20.10.2017 19:00:00 11,3 11,3 18 10 32 18 E 1016,1 8 0,0
20.10.2017 18:00:00 11,2 11,2 18 10 32 18 E 1015,8 7 0,0
20.10.2017 17:00:00 11,3 11,1 18 10 32 18 ENE 1015,7 4,5 0,0
20.10.2017 16:00:00 11,8 11,3 18 10 29 16 E 1016,2 13 0,0
20.10.2017 15:00:00 11,8 11,2 18 10 32 18 ENE 1016,2 17 0,0
20.10.2017 14:00:00 11,8 11,2 22 12 32 18 E 1016,7 20 0,0
20.10.2017 13:00:00 11,8 11,2 22 12 32 18 E 1016,8 19 0,0
20.10.2017 12:00:00 11,9 11,1 29 16 36 19 E 1017,0 19 0,0
20.10.2017 11:00:00 11,8 11,3 25 14 32 18 E 1017,3 17 0,0
20.10.2017 10:00:00 11,7 11,1 22 12 29 16 ESE 1017,4 21 0,0
20.10.2017 09:00:00 11,6 10,8 22 12 29 16 ESE 1017,3 45 0,0
20.10.2017 08:00:00 11,5 10,6 22 12 32 18 ESE 1017,2 45 0,0
20.10.2017 07:00:00 11,4 10,3 25 14 32 18 ESE 1017,2 45 0,0
20.10.2017 06:00:00 11,5 10,4 25 14 32 18 ESE 1017,5 45 0,0
20.10.2017 05:00:00 11,5 10,1 22 12 36 19 E 1017,6 45 0,0
20.10.2017 04:00:00 11,3 10,0 22 12 29 16 E 1018,2 50 0,0
20.10.2017 03:00:00 11,1 10,2 22 12 29 16 E 1018,6 45 0,0
20.10.2017 02:00:00 11,1 9,7 22 12 32 18 E 1019,2 45 0,0
20.10.2017 01:00:00 11,0 9,4 25 14 32 18 E 1019,1 50 0,0
20.10.2017 00:00:00 10,9 9,5 25 14 32 18 E 1019,6 50 0,0
19.10.2017 23:00:00 10,7 9,5 25 14 36 19 E 1019,8 50 0,0
19.10.2017 22:00:00 10,7 9,6 22 12 32 18 E 1019,8 50 0,0
19.10.2017 21:00:00 10,4 9,6 18 10 29 16 E 1019,6 45 0,0
19.10.2017 20:00:00 9,8 9,3 14 8 25 14 ENE 1019,8 45 0,0
19.10.2017 19:00:00 9,9 9,1 18 10 25 14 ENE 1019,9 50 0,0
19.10.2017 18:00:00 10,4 9,2 18 10 29 16 ENE 1019,8 50 0,0
19.10.2017 17:00:00 10,9 9,3 18 10 29 16 E 1019,8 45 0,0
19.10.2017 16:00:00 11,2 9,3 14 8 25 14 E 1020,1 45 0,0
19.10.2017 15:00:00 11,7 9,3 14 8 25 14 E 1019,9 40 0,0
19.10.2017 14:00:00 11,6 9,2 14 8 22 12 E 1020,0 45 0,0
19.10.2017 13:00:00 10,5 8,9 18 10 22 12 ENE 1020,1 45 0,0
19.10.2017 12:00:00 9,9 8,3 18 10 25 14 ENE 1020,3 45 0,0
19.10.2017 11:00:00 9,7 8,6 18 10 25 14 ENE 1020,0 45 0,0
19.10.2017 10:00:00 9,5 8,6 14 8 22 12 ENE 1019,7 45 0,0
19.10.2017 09:00:00 8,4 8,1 14 8 22 12 ENE 1019,4 45 0,0
19.10.2017 08:00:00 7,4 7,3 14 8 18 10 NE 1018,9 45 0,0
19.10.2017 07:00:00 8,3 7,9 14 8 22 12 NE 1018,5 45 0,0
19.10.2017 06:00:00 8,9 8,3 14 8 22 12 NE 1018,5 45 0,0
19.10.2017 05:00:00 9,1 8,3 18 10 22 12 NE 1018,3 45 0,0
19.10.2017 04:00:00 9,4 8,3 14 8 22 12 ENE 1018,1 45 0,0
19.10.2017 03:00:00 9,4 8,3 18 10 22 12 NE 1018,0 50 0,0
19.10.2017 02:00:00 9,7 8,5 18 10 25 14 NE 1018,1 50 0,0
19.10.2017 01:00:00 9,9 8,2 22 12 29 16 ENE 1017,7 50 0,0
19.10.2017 00:00:00 10,2 9,0 18 10 25 14 ENE 1017,7 50 0,0
18.10.2017 23:00:00 10,5 9,3 14 8 22 12 ENE 1017,5 50 0,0
18.10.2017 22:00:00 10,5 10,2 14 8 22 12 ENE 1017,1 45 0,0
18.10.2017 21:00:00 10,6 10,3 14 8 25 14 ENE 1016,6 45 0,0
18.10.2017 20:00:00 10,7 10,5 18 10 25 14 ENE 1016,2 13 0,0
18.10.2017 19:00:00 11,4 11,2 18 10 25 14 ENE 1015,7 19 0,0
18.10.2017 18:00:00 11,9 11,6 11 6 14 8 WSW 1014,9 45 0,0
18.10.2017 17:00:00 11,9 11,6 11 6 18 10 WSW 1014,6 35 0,0
18.10.2017 16:00:00 12,2 11,7 14 8 22 12 WSW 1014,3 35 0,0
18.10.2017 15:00:00 12,5 11,7 18 10 25 14 W 1014,0 45 0,0
18.10.2017 14:00:00 12,4 11,6 22 12 25 14 WSW 1013,9 40 0,0
18.10.2017 13:00:00 12,3 11,5 22 12 25 14 WSW 1013,7 29 0,0
18.10.2017 12:00:00 12,2 11,4 22 12 25 14 WSW 1013,6 20 0,0
18.10.2017 11:00:00 12,2 11,3 22 12 25 14 WSW 1013,3 18 0,0
18.10.2017 10:00:00 12,1 11,3 22 12 40 21 W 1013,0 15 0,0
18.10.2017 09:00:00 12,2 11,1 32 18 40 21 WSW 1012,3 18 0,0
18.10.2017 08:00:00 11,9 11,1 25 14 32 18 WSW 1012,0 14 0,0
18.10.2017 07:00:00 11,6 11,0 25 14 40 21 WSW 1011,4 13 0,0
18.10.2017 06:00:00 11,9 11,0 32 18 43 23 WSW 1011,1 14 0,0
18.10.2017 05:00:00 11,7 11,1 32 18 43 23 WSW 1011,1 12 0,0
18.10.2017 04:00:00 11,8 11,0 36 19 47 25 WSW 1011,0 13 0,0
18.10.2017 03:00:00 11,8 11,0 36 19 47 25 WSW 1011,1 13 0,0
18.10.2017 02:00:00 11,9 11,1 36 19 47 25 WSW 1011,5 12 0,0
18.10.2017 01:00:00 11,9 11,1 40 21 50 27 SW 1011,8 12 0,0
18.10.2017 00:00:00 11,9 11,1 40 21 50 27 SW 1011,8 11 0,0
17.10.2017 23:00:00 12,1 11,3 36 19 47 25 SW 1012,2 11 0,0
17.10.2017 22:00:00 12,3 11,5 36 19 47 25 WSW 1012,7 11 0,0
17.10.2017 21:00:00 12,4 11,5 36 19 43 23 WSW 1012,7 11 0,0
17.10.2017 20:00:00 12,7 11,6 32 18 40 21 WSW 1012,9 11 0,0
17.10.2017 19:00:00 13,1 11,7 32 18 40 21 WSW 1013,1 12 0,0
17.10.2017 18:00:00 12,9 12,0 22 12 36 19 WSW 1013,1 12 0,0
17.10.2017 17:00:00 13,0 11,7 29 16 43 23 WSW 1013,1 12 0,0
17.10.2017 16:00:00 14,0 12,0 36 19 43 23 WSW 1012,8 14 0,0
17.10.2017 15:00:00 14,1 12,5 36 19 50 27 WSW 1013,2 15 0,0
17.10.2017 14:00:00 14,1 12,8 32 18 43 23 WSW 1013,6 15 0,0
17.10.2017 13:00:00 14,5 13,0 32 18 40 21 WSW 1014,0 16 0,0
17.10.2017 12:00:00 14,4 13,1 29 16 40 21 WSW 1014,5 12 0,0
17.10.2017 11:00:00 13,0 12,8 14 8 25 14 W 1014,7 4,5 0,0
17.10.2017 10:00:00 12,9 12,9 18 10 29 16 WSW 1015,3 3,5 0,0
17.10.2017 09:00:00 12,4 12,4 11 6 14 8 SW 1015,9 2,6 0,0
17.10.2017 08:00:00 11,7 11,7 7 4 18 10 S 1016,2 2,1 0,0
17.10.2017 07:00:00 12,3 12,1 14 8 25 14 SSW 1016,7 3,5 0,0
17.10.2017 06:00:00 11,8 11,8 14 8 25 14 S 1017,2 2,1 0,0
17.10.2017 05:00:00 12,2 12,2 7 4 22 12 WSW 1017,9 2,0 0,0
17.10.2017 04:00:00 12,0 12,0 11 6 22 12 S 1017,7 2,2 0,0
17.10.2017 03:00:00 12,2 12,2 18 10 22 12 WSW 1018,9 5 0,0
17.10.2017 02:00:00 12,2 12,2 14 8 25 14 WSW 1019,2 4,7 0,0
17.10.2017 01:00:00 12,6 12,6 18 10 25 14 W 1019,7 5 0,0
17.10.2017 00:00:00 12,2 12,2 22 12 25 14 W 1019,5 4,2 0,0
16.10.2017 23:00:00 12,6 12,4 18 10 22 12 WSW 1019,9 9 0,0
16.10.2017 22:00:00 12,7 12,4 14 8 22 12 WSW 1019,9 11 0,0
16.10.2017 21:00:00 13,0 12,7 11 6 14 8 W 1019,7 15 0,0
16.10.2017 20:00:00 12,8 12,5 11 6 22 12 W 1019,4 20 0,0
16.10.2017 19:00:00 13,1 12,6 22 12 25 14 WSW 1018,8 19 0,0
16.10.2017 18:00:00 13,5 12,9 22 12 29 16 WSW 1018,1 16 0,0
16.10.2017 17:00:00 13,1 12,6 22 12 32 18 W 1017,7 14 0,0

tt = Température de l'air
td = dewpoint
ff = Vitesse du vent
fx = gusts
dd = Direction du vent
ppp = reduced air pressure
vv = visibility
rr = Quantités de précipitations

stations d'obs. à proximité